When you browse on this site, cookies collect data to enhance your experience and personalize the content and advertising you see.
Visit our Privacy Policy to learn more. By continuing to use the site, you agree to this use of cookies and data.
  • In United Kingdom
  • List of Countries
  • For 7 days
  • Water Temperature
  • Weather Map
  • Weather Widgets
  • user-avatar
    Login

    Hourly Weather San Miguel de Tucumán

    Today, 7 June, Sunday

    Time Temperature Precipitation Wind Pressure Humidity
    00:00 +13°C° 0 mm 1 mps 718 mmHg 56%
    01:00 +13°C° 0 mm 1 mps 718 mmHg 55%
    02:00 +12°C° 0 mm 1 mps 718 mmHg 55%
    03:00 +12°C° 0 mm 1 mps 718 mmHg 56%
    04:00 +12°C° 0 mm 1 mps 718 mmHg 57%
    05:00 +10°C° 0 mm 0 mps 718 mmHg 58%
    06:00 +11°C° 0 mm 0 mps 719 mmHg 57%
    07:00 +11°C° 0 mm 0 mps 719 mmHg 56%
    08:00 +13°C° 0 mm 1 mps 720 mmHg 55%
    09:00 +15°C° 0 mm 1 mps 720 mmHg 49%
    10:00 +19°C° 0 mm 1 mps 720 mmHg 44%
    11:00 +21°C° 0 mm 1 mps 720 mmHg 39%
    12:00 +22°C° 0 mm 1 mps 720 mmHg 38%
    13:00 +23°C° 0 mm 1 mps 719 mmHg 37%
    14:00 +24°C° 0 mm 1 mps 718 mmHg 37%
    15:00 +22°C° 0 mm 1 mps 718 mmHg 42%
    16:00 +21°C° 0 mm 1 mps 718 mmHg 47%
    17:00 +20°C° 0 mm 1 mps 718 mmHg 52%
    18:00 +19°C° 0 mm 1 mps 719 mmHg 57%
    19:00 +16°C° 0 mm 1 mps 719 mmHg 61%
    20:00 +15°C° 0 mm 1 mps 719 mmHg 65%
    21:00 +14°C° 0 mm 1 mps 719 mmHg 66%
    22:00 +14°C° 0 mm 1 mps 719 mmHg 67%
    23:00 +12°C° 0 mm 0 mps 719 mmHg 68%

    Tomorrow, 8 June, Monday

    Time Temperature Precipitation Wind Pressure Humidity
    00:00 +13°C° 0 mm 1 mps 719 mmHg 68%
    01:00 +13°C° 0 mm 1 mps 719 mmHg 68%
    02:00 +13°C° 0 mm 1 mps 719 mmHg 68%
    03:00 +13°C° 0 mm 1 mps 718 mmHg 69%
    04:00 +12°C° 0 mm 1 mps 718 mmHg 69%
    05:00 +12°C° 0 mm 1 mps 718 mmHg 69%
    06:00 +13°C° 0 mm 1 mps 719 mmHg 68%
    07:00 +13°C° 0 mm 1 mps 719 mmHg 67%
    08:00 +14°C° 0 mm 1 mps 720 mmHg 65%
    09:00 +16°C° 0 mm 1 mps 720 mmHg 59%
    10:00 +20°C° 0 mm 1 mps 720 mmHg 53%
    11:00 +23°C° 0 mm 1 mps 720 mmHg 46%
    12:00 +24°C° 0 mm 1 mps 719 mmHg 45%
    13:00 +24°C° 0 mm 1 mps 719 mmHg 44%
    14:00 +25°C° 0 mm 1 mps 718 mmHg 44%
    15:00 +24°C° 0 mm 1 mps 718 mmHg 49%
    16:00 +23°C° 0 mm 1 mps 718 mmHg 55%
    17:00 +21°C° 0 mm 1 mps 717 mmHg 61%
    18:00 +20°C° 0 mm 1 mps 718 mmHg 66%
    19:00 +18°C° 0 mm 1 mps 718 mmHg 71%
    20:00 +16°C° 0 mm 1 mps 718 mmHg 76%
    21:00 +15°C° 0 mm 1 mps 718 mmHg 77%
    22:00 +15°C° 0 mm 1 mps 718 mmHg 78%
    23:00 +15°C° 0 mm 1 mps 719 mmHg 79%

    Day after tomorrow, 9 June, Tuesday

    Time Temperature Precipitation Wind Pressure Humidity
    00:00 +15°C° 0 mm 1 mps 718 mmHg 80%
    01:00 +15°C° 0 mm 1 mps 718 mmHg 81%
    02:00 +14°C° 0 mm 1 mps 717 mmHg 81%
    03:00 +14°C° 0 mm 1 mps 717 mmHg 82%
    04:00 +14°C° 0 mm 1 mps 717 mmHg 82%
    05:00 +13°C° 0 mm 0 mps 717 mmHg 82%
    06:00 +14°C° 0 mm 1 mps 717 mmHg 81%
    07:00 +14°C° 0 mm 1 mps 717 mmHg 79%
    08:00 +15°C° 0 mm 1 mps 717 mmHg 78%
    09:00 +18°C° 0 mm 1 mps 718 mmHg 71%
    10:00 +20°C° 0 mm 1 mps 718 mmHg 64%
    11:00 +22°C° 0 mm 1 mps 718 mmHg 58%
    12:00 +23°C° 0 mm 1 mps 717 mmHg 57%
    13:00 +24°C° 0 mm 1 mps 716 mmHg 56%
    14:00 +24°C° 0 mm 1 mps 715 mmHg 55%
    15:00 +23°C° 0 mm 1 mps 715 mmHg 59%
    16:00 +22°C° 0 mm 1 mps 715 mmHg 63%
    17:00 +21°C° 0 mm 1 mps 715 mmHg 68%
    18:00 +20°C° 0 mm 1 mps 715 mmHg 72%
    19:00 +19°C° 0 mm 1 mps 716 mmHg 76%
    20:00 +16°C° 0 mm 0 mps 716 mmHg 80%
    21:00 +18°C° 0 mm 1 mps 716 mmHg 80%
    22:00 +18°C° 0 mm 1 mps 716 mmHg 80%
    23:00 +18°C° 0 mm 1 mps 717 mmHg 80%

    10 June, Wednesday

    Time Temperature Precipitation Wind Pressure Humidity
    00:00 +18°C° 0 mm 1 mps 716 mmHg 79%
    01:00 +18°C° 0 mm 1 mps 716 mmHg 78%
    02:00 +18°C° 0 mm 1 mps 716 mmHg 78%
    03:00 +16°C° 0 mm 1 mps 716 mmHg 79%
    04:00 +15°C° 0 mm 0 mps 716 mmHg 81%
    05:00 +15°C° 0 mm 0 mps 716 mmHg 82%
    06:00 +15°C° 0 mm 0 mps 716 mmHg 81%
    07:00 +15°C° 0 mm 0 mps 717 mmHg 79%
    08:00 +16°C° 0 mm 0 mps 717 mmHg 78%
    09:00 +19°C° 0 mm 1 mps 717 mmHg 75%
    10:00 +20°C° 0 mm 1 mps 717 mmHg 72%
    11:00 +21°C° 0 mm 1 mps 718 mmHg 69%
    12:00 +22°C° 0 mm 1 mps 717 mmHg 70%
    13:00 +21°C° 0 mm 2 mps 716 mmHg 71%
    14:00 +21°C° 0 mm 2 mps 715 mmHg 72%
    15:00 +21°C° 0 mm 2 mps 715 mmHg 75%
    16:00 +21°C° 0 mm 1 mps 715 mmHg 79%
    17:00 +21°C° 0 mm 1 mps 715 mmHg 83%
    18:00 +20°C° 0 mm 1 mps 715 mmHg 85%
    19:00 +20°C° 0 mm 1 mps 715 mmHg 87%
    20:00 +17°C° 0 mm 0 mps 716 mmHg 88%
    21:00 +17°C° 0 mm 0 mps 716 mmHg 89%
    22:00 +17°C° 0 mm 0 mps 716 mmHg 89%
    23:00 +17°C° 0 mm 0 mps 716 mmHg 90%

    11 June, Thursday

    Time Temperature Precipitation Wind Pressure Humidity
    00:00 +17°C° 0 mm 0 mps 716 mmHg 90%
    01:00 +19°C° 0 mm 1 mps 716 mmHg 91%
    02:00 +18°C° 0 mm 1 mps 716 mmHg 92%
    03:00 +16°C° 0 mm 0 mps 716 mmHg 92%
    04:00 +16°C° 0 mm 0 mps 715 mmHg 92%
    05:00 +16°C° 0 mm 0 mps 715 mmHg 93%
    06:00 +16°C° 0 mm 0 mps 716 mmHg 92%
    07:00 +16°C° 0 mm 0 mps 716 mmHg 91%
    08:00 +16°C° 0 mm 0 mps 717 mmHg 90%
    09:00 +17°C° 0 mm 0 mps 717 mmHg 85%
    10:00 +20°C° 0 mm 1 mps 716 mmHg 79%
    11:00 +22°C° 0 mm 1 mps 716 mmHg 74%
    12:00 +22°C° 0 mm 1 mps 716 mmHg 72%
    13:00 +23°C° 0 mm 1 mps 715 mmHg 70%
    14:00 +23°C° 0 mm 1 mps 714 mmHg 68%
    15:00 +23°C° 0 mm 1 mps 714 mmHg 70%
    16:00 +22°C° 0 mm 1 mps 714 mmHg 72%
    17:00 +22°C° 0 mm 1 mps 714 mmHg 74%
    18:00 +21°C° 0 mm 1 mps 714 mmHg 79%
    19:00 +19°C° 0 mm 1 mps 714 mmHg 84%
    20:00 +18°C° 0 mm 1 mps 714 mmHg 89%
    21:00 +18°C° 0 mm 1 mps 714 mmHg 88%
    22:00 +18°C° 0 mm 1 mps 714 mmHg 87%
    23:00 +16°C° 0 mm 1 mps 713 mmHg 86%

    12 June, Friday

    Time Temperature Precipitation Wind Pressure Humidity
    00:00 +16°C° 0 mm 1 mps 713 mmHg 86%
    01:00 +16°C° 0 mm 1 mps 713 mmHg 85%
    02:00 +16°C° 0 mm 1 mps 713 mmHg 85%
    03:00 +16°C° 0 mm 1 mps 712 mmHg 83%
    04:00 +16°C° 0 mm 1 mps 712 mmHg 81%
    05:00 +16°C° 0 mm 1 mps 712 mmHg 79%
    06:00 +16°C° 0 mm 1 mps 712 mmHg 76%
    07:00 +16°C° 0 mm 1 mps 713 mmHg 73%
    08:00 +18°C° 0 mm 1 mps 713 mmHg 70%
    09:00 +20°C° 0 mm 1 mps 714 mmHg 64%
    10:00 +22°C° 0 mm 1 mps 714 mmHg 58%
    11:00 +24°C° 0 mm 2 mps 714 mmHg 52%
    12:00 +25°C° 0 mm 2 mps 714 mmHg 53%
    13:00 +25°C° 0 mm 3 mps 714 mmHg 54%
    14:00 +26°C° 0 mm 3 mps 714 mmHg 55%
    15:00 +25°C° 0 mm 3 mps 714 mmHg 58%
    16:00 +24°C° 0 mm 2 mps 715 mmHg 60%
    17:00 +24°C° 0 mm 2 mps 716 mmHg 63%
    18:00 +23°C° 0.1 mm 2 mps 717 mmHg 71%
    19:00 +20°C° 0.1 mm 2 mps 718 mmHg 79%
    20:00 +19°C° 0.1 mm 2 mps 719 mmHg 86%
    21:00 +18°C° 0.9 mm 2 mps 720 mmHg 88%
    22:00 +17°C° 0.9 mm 2 mps 721 mmHg 90%
    23:00 +16°C° 0.9 mm 3 mps 722 mmHg 91%
    Show more